[[{"header":{"parameterUnit":"m.s-1","parameterCategory":1,"la1":30.2991,"la2":30.254,"lo1":-89.0895,"lo2":-89.0444,"dy":0.0017,"dx":0.0017,"nx":28,"ny":28,"refTime":"2025-06-15T21:00:00:Z","depth":0,"parameterNumber":2,"parameterNumberName":"U-component_of_WINDS"},"data":[0,0,0,0,0,0,0,0,0,0,0,0,0,0,0,0,0,0,0,0,0,0,0,0,0,0,0,0,0,0,0,0,0,0,0,0,0,0,0,0,0,0,0,0,0,0,0,0,0,0,0,0,0,0,0,0,0,0,0.2311,0.2314,0,0.2598,0.2602,0.2605,0.2717,0.2716,0.2716,0.2715,0.3011,0.3019,0.3028,0,0,0,0,0,0,0,0,0,0,0,0,0,0.1861,0.1868,0.2311,0.2315,0.2318,0.2598,0.2602,0.2606,0.2717,0.2716,0.2715,0.2714,0.3008,0.3018,0.3028,0,0,0,0,0,0,0,0,0,0,0,0,0,0.2093,0.1871,0.231,0.2408,0.2419,0.2597,0.2602,0.2607,0.2717,0.2716,0.2715,0.2714,0.3004,0.3017,0.303,0.3133,0,0,0.3069,0.3075,0,0,0,0,0,0,0,0,0.2079,0.2109,0.239,0.2401,0.2414,0.2621,0.2552,0.2783,0.2718,0.2604,0.2715,0.2713,0.2882,0.2905,0.2961,0.3147,0.3159,0.307,0.3078,0.3084,0.3087,0,0,0,0,0,0,0,0.2063,0.2098,0.2425,0.2394,0.2409,0.2437,0.2469,0.2596,0.2746,0.2614,0.2623,0.2655,0.2889,0.2949,0.2969,0.3164,0.307,0.3081,0.3089,0.3094,0.3448,0.345,0,0,0,0,0,0,0.2031,0.2083,0.2416,0.2433,0.2241,0.2446,0.2482,0.2556,0.2745,0.2773,0.2656,0.2659,0.2927,0.2954,0.298,0.3114,0.3084,0.3096,0.3103,0.3447,0.3449,0.345,0,0,0,0,0,0,0.2021,0.2059,0.2404,0.2261,0.2307,0.2455,0.2537,0.2562,0.2622,0.2777,0.2804,0.269,0.2927,0.2962,0.3094,0.3126,0.3101,0.3113,0.3445,0.3447,0.3449,0.3381,0,0,0,0,0,0,0.2007,0.2055,0.2096,0.2261,0.2314,0.2513,0.2539,0.2568,0.2644,0.2651,0.2816,0.2842,0.2929,0.3074,0.3107,0.3143,0.3123,0.3442,0.3446,0.3449,0.3381,0.3381,0.3381,0,0,0,0,0,0.1991,0.2065,0.2097,0.2137,0.2368,0.2514,0.2545,0.2643,0.2646,0.2688,0.2787,0.2837,0.3116,0.3087,0.3124,0.3165,0.3441,0.3445,0.3448,0.3382,0.3381,0.3381,0,0,0,0,0,0,0.1901,0.2089,0.2126,0.2256,0.2368,0.2533,0.2589,0.264,0.2754,0.2756,0.2873,0.2909,0.3032,0.3112,0.3075,0.3275,0.3282,0.3294,0.3218,0.3219,0.3219,0.3198,0.3134,0,0,0,0,0,0.1896,0.1999,0.2158,0.2257,0.2311,0.244,0.2508,0.2573,0.2695,0.2743,0.2852,0.2968,0.3082,0.3155,0.3268,0.3393,0.3431,0.3439,0.3439,0.3438,0.3447,0.3519,0.3525,0.3463,0.3463,0.3462,0,0,0.1888,0.2003,0.2061,0.2242,0.2337,0.2441,0.248,0.2588,0.2667,0.276,0.2891,0.2975,0.3112,0.324,0.3303,0.3311,0.3472,0.3443,0.3441,0.3451,0.3523,0.3529,0.3534,0.3465,0.3465,0.3464,0,0,0.1926,0.2023,0.2117,0.221,0.2352,0.2437,0.2459,0.2617,0.2675,0.2809,0.288,0.2976,0.317,0.3265,0.3338,0.341,0.346,0.3444,0.3443,0.3512,0.3517,0.3522,0.3548,0.3556,0.3452,0.3452,0.3452,0,0.1897,0.2057,0.2158,0.2264,0.2341,0.2428,0.2525,0.2611,0.2783,0.2835,0.284,0.3086,0.3184,0.3336,0.3353,0.341,0.3439,0.3427,0.3508,0.3514,0.352,0.3547,0.3556,0.3449,0.3449,0.345,0.345,0,0.2016,0.2125,0.2184,0.2347,0.2431,0.2531,0.2648,0.2721,0.2778,0.2863,0.2997,0.3118,0.3258,0.3298,0.3356,0.3459,0.3459,0.3485,0.3495,0.3521,0.3548,0.3559,0.3445,0.3446,0.3447,0.3447,0,0,0.2007,0.2224,0.2244,0.2319,0.2482,0.2569,0.2672,0.2808,0.2868,0.2983,0.3074,0.3235,0.326,0.3343,0.3412,0.3472,0.3522,0.3491,0.3496,0.3493,0.3643,0.3624,0.3634,0.3555,0.3557,0.3559,0.3632,0,0.2068,0.2257,0.235,0.2499,0.2602,0.2685,0.2775,0.2885,0.2966,0.3065,0.3154,0.3267,0.3291,0.3341,0.3404,0.3502,0.3554,0.3498,0.3641,0.3645,0.3606,0.3648,0.3629,0.3691,0.3643,0.3645,0.3646,0,0.2165,0.2278,0.2437,0.2587,0.2633,0.2713,0.2845,0.2938,0.3064,0.3118,0.321,0.3277,0.339,0.339,0.3547,0.3507,0.357,0.3627,0.3632,0.3651,0.3648,0.3669,0.3714,0.3723,0.3664,0.3662,0.3661,0,0.2144,0.2336,0.2456,0.2518,0.2696,0.2749,0.2826,0.2951,0.3026,0.3141,0.3191,0.3317,0.3387,0.3483,0.3583,0.3573,0.373,0.3738,0.3779,0.3777,0.381,0.3807,0.3867,0.3848,0.3848,0.3848,0.3847,0,0.2203,0.2296,0.2449,0.2523,0.263,0.2737,0.284,0.2924,0.3033,0.3125,0.3204,0.3289,0.3414,0.3514,0.3592,0.3711,0.3741,0.3789,0.3809,0.3783,0.3777,0.3828,0.3826,0.385,0.385,0.3849,0.3849,0,0.2198,0.2304,0.244,0.2597,0.2639,0.2711,0.2845,0.292,0.3004,0.3119,0.3152,0.3285,0.3406,0.3514,0.3676,0.3728,0.385,0.3874,0.3807,0.3818,0.3853,0.3849,0.395,0.3969,0.3934,0.3934,0.3935,0,0.223,0.2304,0.2468,0.2535,0.261,0.2716,0.2793,0.29,0.2977,0.3125,0.3182,0.331,0.3418,0.3608,0.3719,0.3843,0.3871,0.3898,0.3891,0.3862,0.3873,0.3868,0.3876,0.3898,0.3898,0.3897,0.3897,0,0.2275,0.2323,0.2431,0.2557,0.2646,0.275,0.2857,0.2907,0.3034,0.3117,0.3242,0.3325,0.349,0.3615,0.3751,0.3831,0.3886,0.3898,0.3915,0.389,0.3848,0.3872,0.3807,0.3896,0.3896,0.3896,0.3896,0.3897,0.2291,0.236,0.2486,0.2604,0.2695,0.2793,0.2871,0.2964,0.307,0.3212,0.3268,0.3395,0.3519,0.3707,0.3786,0.3888,0.3898,0.3921,0.3927,0.3931,0.3927,0.383,0.3913,0.3913,0.3913,0.3913,0.3913,0,0.234,0.2425,0.2532,0.2678,0.277,0.2812,0.2933,0.3007,0.3118,0.3228,0.3332,0.3476,0.3598,0.3717,0.3845,0.3904,0.3932,0.3934,0.3931,0.3949,0.3911,0.3884,0.3909,0.3909,0.3909,0.3909,0.3909,0.3909,0.2377,0.2498,0.256,0.2727,0.2811,0.2936,0.3001,0.3092,0.3181,0.3337,0.3439,0.3515,0.363,0.3766,0.388,0.3912,0.3956,0.3951,0.399,0.3953,0.3952,0.3951,0.3927,0.396,0.396,0.4021,0.4021,0.4022]},{"header":{"parameterUnit":"m.s-1","parameterCategory":1,"la1":30.2991,"la2":30.254,"lo1":-89.0895,"lo2":-89.0444,"dy":0.0017,"dx":0.0017,"nx":28,"ny":28,"refTime":"2025-06-15T21:00:00:Z","depth":0,"parameterNumber":3,"parameterNumberName":"V-component_of_WINDS"},"data":[0,0,0,0,0,0,0,0,0,0,0,0,0,0,0,0,0,0,0,0,0,0,0,0,0,0,0,0,0,0,0,0,0,0,0,0,0,0,0,0,0,0,0,0,0,0,0,0,0,0,0,0,0,0,0,0,0,0,4.7821,4.7821,0,4.7809,4.7809,4.7809,4.7811,4.7811,4.7812,4.7812,4.7796,4.7795,4.7795,0,0,0,0,0,0,0,0,0,0,0,0,0,4.7841,4.784,4.7821,4.7821,4.7821,4.7809,4.7809,4.7809,4.7811,4.7811,4.7812,4.7812,4.7796,4.7795,4.7795,0,0,0,0,0,0,0,0,0,0,0,0,0,4.783,4.784,4.7821,4.7821,4.7821,4.7809,4.7809,4.7808,4.7811,4.7811,4.7812,4.7812,4.7796,4.7796,4.7795,4.7781,0,0,4.7792,4.7791,0,0,0,0,0,0,0,0,4.7831,4.783,4.7821,4.7821,4.7821,4.7812,4.781,4.7799,4.7811,4.7815,4.7812,4.7812,4.7801,4.78,4.7796,4.7781,4.778,4.7792,4.7791,4.7791,4.779,0,0,0,0,0,0,0,4.7832,4.783,4.7816,4.7821,4.7821,4.7819,4.7818,4.7808,4.7806,4.7814,4.7815,4.7813,4.7801,4.7797,4.7796,4.778,4.7792,4.7791,4.779,4.779,4.7747,4.7747,0,0,0,0,0,0,4.7833,4.7831,4.7817,4.7816,4.7827,4.7818,4.7817,4.7814,4.7806,4.7805,4.7813,4.7813,4.7799,4.7797,4.7795,4.7776,4.7791,4.779,4.7789,4.7748,4.7747,4.7747,0,0,0,0,0,0,4.7834,4.7832,4.7817,4.7823,4.7821,4.7818,4.7814,4.7814,4.7811,4.7805,4.7804,4.781,4.7799,4.7797,4.7784,4.7776,4.7789,4.7788,4.7748,4.7748,4.7747,4.774,0,0,0,0,0,0,4.7834,4.7832,4.7829,4.7823,4.7821,4.7808,4.7814,4.7813,4.7809,4.781,4.7802,4.7801,4.7799,4.7785,4.7783,4.7775,4.7788,4.7749,4.7748,4.7747,4.7741,4.7739,4.7738,0,0,0,0,0,4.7835,4.7828,4.7829,4.7827,4.7817,4.7808,4.7806,4.7805,4.7809,4.7804,4.7799,4.7801,4.7777,4.7784,4.7781,4.7773,4.775,4.7748,4.7747,4.7742,4.774,4.7738,0,0,0,0,0,0,4.7833,4.7828,4.7828,4.782,4.7814,4.7808,4.7803,4.7803,4.7796,4.7796,4.7794,4.7792,4.7778,4.7774,4.7782,4.7757,4.7764,4.7762,4.7761,4.7758,4.7757,4.7758,4.7787,0,0,0,0,0,4.7832,4.7826,4.7821,4.7813,4.781,4.7807,4.7803,4.7802,4.7795,4.7793,4.7788,4.778,4.777,4.7764,4.7755,4.774,4.7736,4.7733,4.7731,4.7729,4.7728,4.7715,4.7712,4.7743,4.7743,4.7743,0,0,4.7829,4.7825,4.7821,4.7813,4.7808,4.78,4.7805,4.7797,4.779,4.7791,4.7779,4.7774,4.7765,4.775,4.7743,4.7746,4.7718,4.7728,4.7727,4.7726,4.7713,4.7711,4.7708,4.7742,4.7742,4.7742,0,0,4.7819,4.7817,4.7809,4.7803,4.7796,4.7793,4.7791,4.7784,4.7781,4.7768,4.7767,4.7758,4.7742,4.7735,4.7729,4.771,4.771,4.7707,4.7698,4.7686,4.7684,4.7681,4.7672,4.7669,4.7706,4.7706,4.7706,0,4.7816,4.7805,4.7804,4.7795,4.7789,4.779,4.778,4.7774,4.7764,4.7759,4.7763,4.774,4.7734,4.7715,4.771,4.7707,4.7701,4.7709,4.7684,4.7682,4.768,4.7671,4.7668,4.7705,4.7705,4.7705,4.7705,0,4.78,4.7792,4.7786,4.7776,4.777,4.776,4.7755,4.7748,4.7746,4.7742,4.7726,4.7718,4.7706,4.7701,4.7701,4.7681,4.7683,4.7685,4.7692,4.7677,4.7668,4.7665,4.7705,4.7705,4.7705,4.7705,0,0,4.7792,4.7778,4.7776,4.7769,4.7759,4.7752,4.774,4.7728,4.7721,4.7713,4.7701,4.7685,4.7686,4.7679,4.7677,4.7666,4.7647,4.7669,4.7669,4.7663,4.7621,4.7618,4.7615,4.7647,4.7647,4.7646,4.7621,0,4.778,4.7761,4.7757,4.774,4.773,4.7728,4.7717,4.7708,4.7702,4.7691,4.7684,4.7672,4.7676,4.7671,4.766,4.7652,4.7639,4.7654,4.7633,4.7633,4.7635,4.7611,4.7609,4.7586,4.7618,4.7617,4.7617,0,4.7764,4.7754,4.7736,4.7723,4.7719,4.771,4.7696,4.7686,4.7674,4.767,4.766,4.7657,4.7641,4.7648,4.7624,4.7634,4.7625,4.7619,4.7618,4.7616,4.7624,4.7606,4.7579,4.7575,4.7612,4.7613,4.7613,0,4.7757,4.7739,4.7725,4.772,4.7705,4.7698,4.7691,4.7679,4.7671,4.7658,4.7651,4.7637,4.7628,4.7615,4.7607,4.7613,4.7582,4.7589,4.7576,4.7576,4.757,4.757,4.754,4.7566,4.7566,4.7566,4.7566,0,4.7743,4.7732,4.7721,4.7712,4.7697,4.7691,4.7676,4.7669,4.7657,4.7644,4.7641,4.7629,4.7619,4.7604,4.7598,4.7576,4.7573,4.7567,4.7565,4.7567,4.7568,4.7561,4.7562,4.7565,4.7565,4.7565,4.7566,0,4.7734,4.7727,4.771,4.7696,4.7692,4.7682,4.7669,4.7658,4.765,4.7634,4.763,4.7617,4.7599,4.7589,4.7567,4.7562,4.7538,4.7538,4.7542,4.7541,4.7527,4.7528,4.7491,4.7484,4.7516,4.7516,4.7516,0,4.7726,4.7716,4.77,4.7692,4.7685,4.7671,4.7662,4.7654,4.7644,4.7626,4.7616,4.7598,4.7583,4.7553,4.7541,4.7522,4.7521,4.7508,4.7518,4.7518,4.7517,4.7518,4.7515,4.7507,4.7507,4.7506,4.7506,0,4.7711,4.7706,4.7694,4.7678,4.7667,4.7655,4.7642,4.7635,4.7624,4.7612,4.7593,4.7581,4.7557,4.7537,4.7517,4.7506,4.7503,4.7503,4.7498,4.75,4.7502,4.7498,4.7536,4.7504,4.7504,4.7504,4.7505,4.7505,4.77,4.769,4.7676,4.7661,4.765,4.7637,4.7625,4.7615,4.76,4.758,4.7575,4.7554,4.7537,4.7509,4.7498,4.7479,4.7482,4.7476,4.7474,4.7473,4.7471,4.7505,4.7476,4.7476,4.7476,4.7476,4.7476,0,4.7683,4.7673,4.7659,4.7641,4.7627,4.7626,4.761,4.7598,4.7581,4.7565,4.755,4.7525,4.7505,4.7489,4.7468,4.7455,4.7453,4.745,4.745,4.7447,4.7471,4.7476,4.7452,4.7452,4.7452,4.7452,4.7452,4.7452,4.7673,4.7655,4.7648,4.7622,4.7612,4.7592,4.7583,4.7569,4.7557,4.753,4.7513,4.7503,4.7486,4.7462,4.7442,4.7437,4.7428,4.7425,4.742,4.7443,4.7446,4.7448,4.7453,4.7424,4.7423,4.7397,4.7396,4.7396]}]]